Location: ??
(34.9170°N, 135.5016°E)
Time: 17:41:37
(UTC+00:00)

ALOS - Pass Details

Date: 29 October 2020
Orbit: 684 x 684 km, 97.9° (Epoch: 30 November)

Event Time Altitude Azimuth Distance (km) Brightness Sun altitude
Rises 20:33:20 0° 354° (N) 3,053 5.4 -9.5°
Reaches altitude 10° 20:36:06 10° 337° (NNW) 2,133 4.5 -9.0°
Maximum altitude 20:39:23 19° 292° (WNW) 1,589 3.5 -8.3°
Drops below altitude 10° 20:42:40 10° 247° (WSW) 2,124 4.3 -7.7°
Sets 20:45:26 0° 230° (SW) 3,035 5.2 -7.1°
